Torna al catalogo

ARIANE 44L+ R/B

AttivoHEO
NORAD 22725·ROCKET BODY·🇫🇷 France

Lanciato Jul 22, 1993 da Guiana Space Centre

Loading…

Prossimi Passaggi (prossime 24 ore)

TLE

AggiornatoSource: Space-Track

Epoca: Sep 14, 2026, 10:14 UTC

1 22725U 93048C   26257.42699897  .00000956  00000-0  10636-2 0  9996
2 22725   7.2008 325.2589 6879143 290.0381  11.7641  2.74967218315579

Traccia ARIANE 44L+ R/B in tempo reale con AllMySat

Download on the App Store